Regional Weather Roundup
Issued by NWS Binghamton, NY

Home | Current Version | Previous Version | Text Only | Print | Product List | Glossary On
Versions: 1 2 3 4 5 6 7 8 9 10 11 12 13 14 15 16 17 18 19 20 21 22 23 24 25 26 27
000
ASUS41 KBGM 230510
RWRBGM

REGIONAL WEATHER ROUNDUP
NATIONAL WEATHER SERVICE BINGHAMTON NY
100 AM EDT MON APR 23 2018

Note: "fair" indicates few or no clouds below 12,000 feet with no
significant weather and/or obstructions to visibility.

* = Station(s) that does not report precipitation, such as rain,
snow, etc, also no thunder or fog.

NYZ009-015>018-022>025-036-037-044>046-055>057-062-230600
...Central New York...

CITY           SKY/WX    TMP DP  RH WIND       PRES   REMARKS
Binghamton     FAIR      42  14  32 NE3       30.39R
Cortland       FAIR      28  23  80 CALM      30.42R
Dansville      FAIR      37  25  61 SE3       30.42R
Elmira         FAIR      36  25  64 CALM      30.41S
Ithaca         FAIR      36  21  54 E8        30.42R WCI  30
Monticello     FAIR      42  16  34 CALM      30.40R
Penn Yan       FAIR      36  22  56 SW5       30.41S WCI  32
Rome           FAIR      32  24  72 CALM      30.44R
Sidney         CLEAR     30  28  93 CALM      30.42S
Syracuse       FAIR      36  25  64 SE3       30.42R
$$

PAZ038>040-043-044-047-048-072-230600
...Northeast Pennsylvania...

CITY           SKY/WX    TMP DP  RH WIND       PRES   REMARKS
Hazleton       FAIR      36   9  32 CALM      30.41S
Scranton       FAIR      44  21  40 E8        30.39R
$$
&&
KEY
WCI = Wind Chill Index
VSB = Visibility
HX  = Heat Index
$$




USA.gov is the U.S. government's official web portal to all federal, state and local government web resources and services.